[[{"header":{"parameterUnit":"m.s-1","parameterCategory":1,"la1":30.2991,"la2":30.254,"lo1":-89.0895,"lo2":-89.0444,"dy":0.0017,"dx":0.0017,"nx":28,"ny":28,"refTime":"2024-10-16T03:00:00:Z","depth":0,"parameterNumber":2,"parameterNumberName":"U-component_of_WINDS"},"data":[0,0,0,0,0,0,0,0,0,0,0,0,0,0,0,0,0,0,0,0,0,0,0,0,0,0,0,0,0,0,0,0,0,0,0,0,0,0,0,0,0,0,0,0,0,0,0,0,0,0,0,0,0,0,0,0,0,0,-5.0681,-5.0682,0,-5.0751,-5.0752,-5.0752,-5.0633,-5.0629,-5.0625,-5.0621,-5.0692,-5.0697,-5.0703,0,0,0,0,0,0,0,0,0,0,0,0,0,-5.0441,-5.0446,-5.0681,-5.0682,-5.0683,-5.0751,-5.0752,-5.0753,-5.0634,-5.0629,-5.0624,-5.0619,-5.069,-5.0696,-5.0703,0,0,0,0,0,0,0,0,0,0,0,0,0,-5.0532,-5.0448,-5.0681,-5.0631,-5.0628,-5.0751,-5.0752,-5.0753,-5.0635,-5.0629,-5.0623,-5.0617,-5.0687,-5.0696,-5.0704,-5.0878,0,0,-5.073,-5.0734,0,0,0,0,0,0,0,0,-5.0527,-5.0541,-5.0638,-5.0635,-5.0631,-5.0677,-5.0693,-5.0795,-5.0636,-5.0632,-5.0621,-5.0614,-5.0692,-5.0699,-5.0726,-5.0881,-5.0884,-5.0731,-5.0736,-5.0739,-5.0742,0,0,0,0,0,0,0,-5.0521,-5.0537,-5.0708,-5.0639,-5.0635,-5.0605,-5.0611,-5.0712,-5.0695,-5.0632,-5.0623,-5.0633,-5.0688,-5.0718,-5.0726,-5.0885,-5.073,-5.0738,-5.0743,-5.0746,-5.1185,-5.1191,0,0,0,0,0,0,-5.0521,-5.0533,-5.0706,-5.071,-5.0563,-5.0614,-5.0621,-5.0668,-5.0693,-5.0692,-5.0639,-5.0628,-5.0706,-5.0717,-5.0728,-5.0933,-5.0739,-5.0747,-5.0752,-5.1179,-5.1187,-5.1194,0,0,0,0,0,0,-5.0516,-5.0537,-5.0703,-5.0619,-5.0638,-5.0625,-5.0679,-5.0673,-5.0702,-5.0698,-5.0695,-5.0672,-5.0702,-5.0717,-5.0841,-5.0934,-5.0751,-5.0759,-5.1171,-5.1181,-5.119,-5.1345,0,0,0,0,0,0,-5.051,-5.0536,-5.0603,-5.0622,-5.0643,-5.0817,-5.0685,-5.0679,-5.0717,-5.0704,-5.0729,-5.0727,-5.0698,-5.0829,-5.085,-5.0942,-5.0765,-5.1162,-5.1175,-5.1187,-5.1331,-5.1359,-5.1382,0,0,0,0,0,-5.0502,-5.0644,-5.0607,-5.0629,-5.0726,-5.0822,-5.0834,-5.0799,-5.0725,-5.0792,-5.0789,-5.0726,-5.092,-5.0843,-5.0865,-5.0962,-5.1157,-5.1172,-5.1186,-5.132,-5.1353,-5.1381,0,0,0,0,0,0,-5.0636,-5.0645,-5.0605,-5.0757,-5.079,-5.0802,-5.0885,-5.0835,-5.0889,-5.0874,-5.0827,-5.0833,-5.0968,-5.0977,-5.0891,-5.113,-5.1026,-5.1046,-5.112,-5.1152,-5.1177,-5.1172,-5.0772,0,0,0,0,0,-5.0684,-5.0762,-5.0765,-5.0899,-5.0917,-5.0899,-5.0939,-5.0909,-5.094,-5.0953,-5.096,-5.0992,-5.106,-5.1106,-5.1169,-5.1331,-5.1335,-5.1408,-5.1434,-5.1455,-5.1473,-5.1559,-5.1592,-5.1242,-5.1242,-5.1242,0,0,-5.0783,-5.0797,-5.0849,-5.0926,-5.0948,-5.1029,-5.0911,-5.1002,-5.1061,-5.0967,-5.1085,-5.1091,-5.1124,-5.1269,-5.1333,-5.128,-5.157,-5.1473,-5.149,-5.1497,-5.1577,-5.1611,-5.164,-5.1252,-5.125,-5.1249,0,0,-5.1004,-5.1023,-5.1137,-5.1161,-5.1195,-5.1181,-5.1209,-5.1228,-5.1228,-5.1347,-5.1277,-5.1346,-5.1465,-5.1491,-5.152,-5.175,-5.1695,-5.1772,-5.1905,-5.1989,-5.2017,-5.2041,-5.2123,-5.2154,-5.179,-5.179,-5.179,0,-5.1123,-5.1243,-5.1202,-5.1297,-5.1333,-5.1251,-5.1366,-5.139,-5.1444,-5.147,-5.141,-5.1556,-5.1573,-5.1722,-5.1778,-5.1804,-5.1834,-5.177,-5.2016,-5.204,-5.2062,-5.214,-5.2171,-5.1799,-5.1798,-5.1797,-5.1796,0,-5.1387,-5.1471,-5.1559,-5.1612,-5.1657,-5.1762,-5.1736,-5.1786,-5.1752,-5.1744,-5.1865,-5.1881,-5.1945,-5.1978,-5.1945,-5.2123,-5.2089,-5.2024,-5.1918,-5.2105,-5.2178,-5.2207,-5.1812,-5.1809,-5.1806,-5.1804,0,0,-5.1697,-5.1726,-5.1759,-5.1782,-5.1813,-5.1877,-5.1977,-5.204,-5.2084,-5.2123,-5.2205,-5.2307,-5.2246,-5.2279,-5.2248,-5.2322,-5.2503,-5.2247,-5.2247,-5.2294,-5.27,-5.275,-5.2785,-5.2465,-5.2471,-5.2475,-5.2697,0,-5.1918,-5.2092,-5.2057,-5.2227,-5.2304,-5.2226,-5.2313,-5.2341,-5.2336,-5.24,-5.2393,-5.2467,-5.2381,-5.24,-5.247,-5.2467,-5.2584,-5.245,-5.2542,-5.2546,-5.2537,-5.2823,-5.2876,-5.3084,-5.2725,-5.273,-5.2733,0,-5.22,-5.225,-5.2428,-5.2445,-5.2476,-5.2556,-5.261,-5.2672,-5.2701,-5.2692,-5.2729,-5.2683,-5.2781,-5.2673,-5.2808,-5.2717,-5.2752,-5.2756,-5.2763,-5.2771,-5.2652,-5.2839,-5.315,-5.3182,-5.2777,-5.2774,-5.2771,0,-5.2409,-5.252,-5.2641,-5.2663,-5.2687,-5.2744,-5.2757,-5.278,-5.282,-5.2867,-5.2892,-5.295,-5.2982,-5.3027,-5.2998,-5.2922,-5.3137,-5.3027,-5.3132,-5.3133,-5.3182,-5.318,-5.3504,-5.3204,-5.3203,-5.3203,-5.3202,0,-5.2661,-5.2773,-5.2735,-5.281,-5.2932,-5.289,-5.3012,-5.3015,-5.3037,-5.311,-5.3045,-5.3115,-5.3071,-5.3137,-5.3114,-5.3229,-5.3243,-5.3239,-5.3231,-5.3245,-5.3246,-5.3268,-5.3254,-5.3211,-5.3209,-5.3208,-5.3206,0,-5.2916,-5.2896,-5.3022,-5.3034,-5.3039,-5.3129,-5.3139,-5.3208,-5.3197,-5.329,-5.3309,-5.3293,-5.3367,-5.3341,-5.342,-5.3405,-5.3551,-5.3525,-5.3542,-5.3536,-5.3643,-5.3633,-5.3993,-5.4038,-5.3709,-5.3712,-5.3714,0,-5.3079,-5.3163,-5.3184,-5.3228,-5.3245,-5.3318,-5.3358,-5.3319,-5.3363,-5.3402,-5.3466,-5.3534,-5.3587,-5.3708,-5.3703,-5.3763,-5.3738,-5.386,-5.3746,-5.3757,-5.374,-5.3736,-5.3744,-5.3883,-5.3887,-5.389,-5.3892,0,-5.3369,-5.3354,-5.3415,-5.3473,-5.3523,-5.3566,-5.3603,-5.3643,-5.3606,-5.3659,-5.3734,-5.3775,-5.3855,-5.3923,-5.3977,-5.3988,-5.3935,-5.3928,-5.3955,-5.3971,-5.3978,-5.3976,-5.3605,-5.392,-5.3917,-5.3915,-5.3914,-5.3913,-5.3583,-5.3654,-5.368,-5.375,-5.3774,-5.381,-5.3875,-5.3872,-5.3934,-5.3997,-5.3969,-5.4056,-5.4081,-5.4148,-5.4167,-5.4233,-5.4186,-5.4226,-5.4236,-5.4247,-5.4261,-5.3966,-5.4242,-5.4241,-5.4241,-5.424,-5.4239,0,-5.3871,-5.3883,-5.3948,-5.4002,-5.4057,-5.4001,-5.4039,-5.4088,-5.4165,-5.4194,-5.4247,-5.4332,-5.4398,-5.4397,-5.4458,-5.4511,-5.4488,-5.4528,-5.4524,-5.4528,-5.4299,-5.427,-5.4546,-5.4546,-5.4546,-5.4546,-5.4546,-5.4546,-5.4027,-5.4145,-5.4133,-5.4261,-5.4272,-5.4357,-5.4383,-5.4416,-5.4438,-5.4537,-5.4591,-5.459,-5.4607,-5.4668,-5.4725,-5.4723,-5.4748,-5.4798,-5.4787,-5.4574,-5.4544,-5.4515,-5.4487,-5.4804,-5.4804,-5.501,-5.5012,-5.5013]},{"header":{"parameterUnit":"m.s-1","parameterCategory":1,"la1":30.2991,"la2":30.254,"lo1":-89.0895,"lo2":-89.0444,"dy":0.0017,"dx":0.0017,"nx":28,"ny":28,"refTime":"2024-10-16T03:00:00:Z","depth":0,"parameterNumber":3,"parameterNumberName":"V-component_of_WINDS"},"data":[0,0,0,0,0,0,0,0,0,0,0,0,0,0,0,0,0,0,0,0,0,0,0,0,0,0,0,0,0,0,0,0,0,0,0,0,0,0,0,0,0,0,0,0,0,0,0,0,0,0,0,0,0,0,0,0,0,0,-8.332,-8.3321,0,-8.3402,-8.3402,-8.3403,-8.3273,-8.3268,-8.3264,-8.3259,-8.3337,-8.3343,-8.335,0,0,0,0,0,0,0,0,0,0,0,0,0,-8.3044,-8.305,-8.332,-8.3321,-8.3322,-8.3401,-8.3402,-8.3404,-8.3273,-8.3268,-8.3263,-8.3257,-8.3335,-8.3343,-8.335,0,0,0,0,0,0,0,0,0,0,0,0,0,-8.3149,-8.3052,-8.332,-8.3267,-8.3263,-8.3401,-8.3403,-8.3404,-8.3275,-8.3268,-8.3261,-8.3255,-8.3333,-8.3342,-8.3351,-8.3544,0,0,-8.338,-8.3384,0,0,0,0,0,0,0,0,-8.3143,-8.3159,-8.3273,-8.3271,-8.3266,-8.332,-8.3334,-8.3451,-8.3276,-8.327,-8.3259,-8.3252,-8.3337,-8.3345,-8.3375,-8.3547,-8.355,-8.3381,-8.3386,-8.339,-8.3393,0,0,0,0,0,0,0,-8.3136,-8.3154,-8.3352,-8.3275,-8.3271,-8.3236,-8.3244,-8.3355,-8.334,-8.327,-8.3261,-8.3272,-8.3333,-8.3367,-8.3376,-8.3552,-8.338,-8.3389,-8.3395,-8.3398,-8.3883,-8.389,0,0,0,0,0,0,-8.3136,-8.3149,-8.3349,-8.3354,-8.3187,-8.3247,-8.3255,-8.331,-8.3338,-8.3336,-8.3278,-8.3266,-8.3354,-8.3365,-8.3378,-8.3604,-8.339,-8.3399,-8.3405,-8.3876,-8.3884,-8.3892,0,0,0,0,0,0,-8.313,-8.3155,-8.3346,-8.3249,-8.3271,-8.3259,-8.3321,-8.3315,-8.3348,-8.3345,-8.334,-8.3315,-8.3349,-8.3365,-8.3503,-8.3605,-8.3403,-8.3412,-8.3867,-8.3878,-8.3888,-8.4058,0,0,0,0,0,0,-8.3123,-8.3154,-8.3229,-8.3252,-8.3277,-8.3472,-8.3327,-8.3321,-8.3365,-8.335,-8.3378,-8.3376,-8.3345,-8.349,-8.3513,-8.3614,-8.3419,-8.3858,-8.3872,-8.3885,-8.4043,-8.4073,-8.4099,0,0,0,0,0,-8.3114,-8.3272,-8.3233,-8.3258,-8.337,-8.3479,-8.3492,-8.3455,-8.3374,-8.3447,-8.3445,-8.3375,-8.359,-8.3505,-8.353,-8.3636,-8.3851,-8.3868,-8.3884,-8.4031,-8.4068,-8.4099,0,0,0,0,0,0,-8.3259,-8.3274,-8.3231,-8.3403,-8.3441,-8.3456,-8.3548,-8.3495,-8.3555,-8.3538,-8.3487,-8.3494,-8.3643,-8.3652,-8.3558,-8.3822,-8.3707,-8.3729,-8.381,-8.3845,-8.3873,-8.3867,-8.3427,0,0,0,0,0,-8.3312,-8.34,-8.3408,-8.3558,-8.358,-8.3561,-8.3607,-8.3574,-8.3611,-8.3626,-8.3633,-8.3669,-8.3744,-8.3795,-8.3864,-8.4044,-8.4047,-8.4128,-8.4156,-8.4179,-8.4199,-8.4293,-8.4328,-8.3946,-8.3946,-8.3945,0,0,-8.342,-8.3439,-8.3498,-8.3588,-8.3613,-8.3704,-8.3575,-8.3677,-8.3743,-8.364,-8.3771,-8.3779,-8.3815,-8.3975,-8.4045,-8.3987,-8.4305,-8.42,-8.4219,-8.4225,-8.4313,-8.4349,-8.4382,-8.3957,-8.3955,-8.3953,0,0,-8.3664,-8.3688,-8.3816,-8.3844,-8.3885,-8.3871,-8.3902,-8.3926,-8.3927,-8.4059,-8.3983,-8.4059,-8.4191,-8.422,-8.4252,-8.4505,-8.4443,-8.4529,-8.4675,-8.4767,-8.4797,-8.4823,-8.4913,-8.4945,-8.4548,-8.4549,-8.4549,0,-8.3793,-8.3929,-8.3887,-8.3995,-8.4035,-8.3948,-8.4075,-8.4104,-8.4164,-8.4193,-8.4128,-8.4291,-8.4309,-8.4473,-8.4535,-8.4565,-8.4596,-8.4525,-8.4796,-8.4822,-8.4846,-8.4931,-8.4965,-8.4559,-8.4558,-8.4557,-8.4556,0,-8.4085,-8.418,-8.4277,-8.434,-8.4392,-8.4509,-8.4482,-8.4539,-8.4502,-8.4495,-8.4628,-8.4647,-8.4718,-8.4754,-8.4719,-8.4914,-8.4876,-8.4805,-8.4688,-8.4894,-8.4972,-8.5004,-8.4574,-8.457,-8.4567,-8.4564,0,0,-8.4423,-8.4461,-8.4498,-8.4524,-8.4563,-8.4634,-8.4745,-8.4817,-8.4866,-8.491,-8.5001,-8.5113,-8.5047,-8.5083,-8.505,-8.5131,-8.5329,-8.5049,-8.5049,-8.5099,-8.5543,-8.5596,-8.5634,-8.5288,-8.5294,-8.5299,-8.5539,0,-8.4665,-8.486,-8.4825,-8.5014,-8.51,-8.5018,-8.5114,-8.5147,-8.5143,-8.5213,-8.5207,-8.5288,-8.5195,-8.5216,-8.5292,-8.5289,-8.5417,-8.5271,-8.537,-8.5374,-8.5363,-8.5675,-8.5732,-8.5959,-8.557,-8.5575,-8.5579,0,-8.4974,-8.5032,-8.523,-8.5253,-8.5288,-8.5376,-8.5437,-8.5507,-8.5541,-8.5531,-8.5572,-8.5523,-8.5631,-8.5514,-8.5661,-8.5562,-8.56,-8.5604,-8.5612,-8.5619,-8.5489,-8.569,-8.603,-8.6064,-8.5627,-8.5623,-8.5619,0,-8.52,-8.5327,-8.5461,-8.5487,-8.5518,-8.5581,-8.5596,-8.5624,-8.5669,-8.5721,-8.5749,-8.5814,-8.5849,-8.5899,-8.5867,-8.5785,-8.6019,-8.5899,-8.6013,-8.6014,-8.6066,-8.6063,-8.6416,-8.6092,-8.6091,-8.6091,-8.609,0,-8.5474,-8.5598,-8.5563,-8.5646,-8.5781,-8.5739,-8.5873,-8.5878,-8.5904,-8.5984,-8.5915,-8.5992,-8.5946,-8.6018,-8.5993,-8.6118,-8.6134,-8.6129,-8.6121,-8.6135,-8.6136,-8.6159,-8.6142,-8.61,-8.6098,-8.6096,-8.6095,0,-8.5749,-8.5731,-8.5872,-8.589,-8.5897,-8.5996,-8.601,-8.6086,-8.6076,-8.6178,-8.62,-8.6184,-8.6265,-8.6239,-8.6325,-8.6309,-8.6467,-8.6439,-8.6457,-8.6449,-8.6564,-8.6554,-8.6944,-8.6992,-8.6638,-8.6642,-8.6644,0,-8.5925,-8.6019,-8.6047,-8.6097,-8.6118,-8.6199,-8.6244,-8.6205,-8.6254,-8.63,-8.637,-8.6445,-8.6503,-8.6636,-8.6631,-8.6696,-8.6669,-8.6801,-8.6678,-8.6689,-8.667,-8.6664,-8.6673,-8.6825,-8.683,-8.6833,-8.6836,0,-8.6239,-8.6225,-8.6294,-8.6361,-8.6417,-8.6467,-8.651,-8.6554,-8.6517,-8.6575,-8.6658,-8.6704,-8.6793,-8.6868,-8.6927,-8.6939,-8.6881,-8.6874,-8.6904,-8.6919,-8.6925,-8.6922,-8.6523,-8.6866,-8.6863,-8.686,-8.6859,-8.6858,-8.6469,-8.6548,-8.658,-8.6659,-8.6687,-8.6729,-8.6801,-8.6801,-8.687,-8.6941,-8.6912,-8.7007,-8.7036,-8.711,-8.7131,-8.7203,-8.7152,-8.7195,-8.7206,-8.7217,-8.7231,-8.6914,-8.7214,-8.7213,-8.7212,-8.7211,-8.721,0,-8.6778,-8.6795,-8.6868,-8.6931,-8.6993,-8.6934,-8.6978,-8.7033,-8.7118,-8.7152,-8.7211,-8.7305,-8.7377,-8.7378,-8.7444,-8.7502,-8.7477,-8.752,-8.7515,-8.7519,-8.7274,-8.7241,-8.7539,-8.7539,-8.7539,-8.7539,-8.7539,-8.7539,-8.6946,-8.7077,-8.7067,-8.7209,-8.7224,-8.7318,-8.7348,-8.7385,-8.7411,-8.7521,-8.7581,-8.7581,-8.7601,-8.7668,-8.7731,-8.7729,-8.7756,-8.781,-8.7798,-8.7569,-8.7536,-8.7505,-8.7474,-8.7816,-8.7817,-8.8036,-8.8038,-8.804]}]]